Location: Bats
(43.6587°N, 0.4584°W)
Time: 06:45:09
(UTC+00:00)

CZ-4 R/B - Pass Details

Date: 12 January 2026
Orbit: 547 x 553 km, 97.6° (Epoch: 10 February)

Event Time Altitude Azimuth Distance (km) Brightness Sun altitude
Rises 18:10:46 0° 167° (SSE) 2,709 7.9 -14.8°
Reaches altitude 10° 18:12:53 10° 168° (SSE) 1,821 7.0 -15.1°
Maximum altitude 18:16:49 84° 255° (WSW) 561 4.3 -15.8°
Drops below altitude 10° 18:20:49 10° 346° (NNW) 1,841 7.0 -16.5°
Sets 18:22:57 0° 347° (NNW) 2,741 7.9 -16.9°
